GFSMW_250_rhum_120.txt.gz
RH
17 28 30 24 18 19 21 19 20 21 21 22 24 26 22 20 20 21 20 18 15 10 8 6 6 6 7 7 7 7 7 8 8 8 8 8 8 8 9 11 17 23 27
21 19 20 22 24 23 21 22 22 20 19 19 18 16 14 12 10 10 10 9 9 8 8 7 7 7 7 7 7 7 7 8 9 9 9 8 8 8 10 11 12 14 16
28 29 30 32 35 33 26 22 19 16 15 15 13 12 11 11 10 9 8 9 8 8 6 5 5 5 5 5 5 5 6 6 7 8 8 9 10 9 10 11 9 15 19
33 34 36 39 34 24 27 26 21 21 20 16 17 15 13 13 12 12 11 10 9 8 6 5 5 5 5 5 4 4 4 5 6 8 8 8 6 13 10 9 8 10 11
40 50 50 38 32 28 31 31 28 26 24 24 23 20 15 12 12 12 14 15 15 13 12 11 10 8 7 6 6 6 6 5 6 6 7 6 7 8 9 12 12 7 10
36 34 35 37 36 33 31 29 29 27 21 16 13 15 25 35 29 28 26 24 24 24 21 18 15 10 8 6 6 6 6 6 7 8 9 8 8 7 7 9 12 9 12
33 34 33 32 32 30 30 26 21 20 26 33 42 48 51 43 40 35 32 31 29 26 24 22 20 18 14 10 8 6 6 6 7 8 9 10 10 9 8 9 9 11 12
32 30 30 30 33 28 24 30 38 44 44 45 44 43 42 40 36 32 30 29 28 26 25 23 22 22 22 20 17 14 11 10 9 7 6 7 8 9 9 10 11 10 10
29 32 33 28 40 48 47 42 39 42 43 47 54 54 43 37 33 32 31 31 31 28 26 25 24 22 20 20 19 18 17 17 19 19 16 12 9 7 7 7 9 9 10
31 40 46 48 45 42 41 44 48 55 57 56 50 41 32 32 35 41 41 38 35 32 31 29 28 26 25 25 24 24 23 22 21 20 20 20 21 23 22 19 15 11 9
45 45 47 47 48 50 53 54 50 46 42 38 35 37 39 48 55 57 53 55 54 52 53 46 40 36 31 26 22 18 17 16 17 17 18 19 21 21 20 18 16 15 16
46 42 40 41 42 41 39 42 37 39 38 40 46 58 71 72 76 76 72 72 77 73 78 75 71 66 61 56 50 42 33 24 19 17 15 14 13 14 14 14 14 15 16
44 45 45 50 52 54 64 69 66 65 61 72 76 77 70 69 70 77 72 74 82 77 79 76 75 70 65 61 55 50 45 41 37 34 31 26 20 16 12 11 10 10 10
66 86 66 66 56 52 51 49 53 62 61 63 61 62 62 66 79 81 84 83 91 89 88 84 73 73 70 68 59 53 47 40 38 36 33 30 26 22 16 13 11 9 8
60 56 54 54 56 58 66 74 70 66 64 65 68 67 67 67 75 83 81 83 78 78 74 77 76 72 67 64 59 55 45 42 39 41 36 29 23 17 15 13 10 9 8
72 84 83 85 81 86 93 97 95 86 86 96 86 86 83 81 76 76 74 73 75 76 81 80 77 77 73 67 61 55 42 42 38 36 34 26 18 14 13 12 10 8 7
100 100 100 100 100 100 100 100 100 100 100 100 100 100 100 100 100 96 90 78 78 81 84 82 76 68 68 68 63 57 46 35 31 26 27 20 14 13 11 9 8 7 7
100 93 85 72 80 78 94 98 96 100 100 100 93 99 100 100 100 100 100 98 86 95 95 90 84 81 74 71 60 58 46 35 25 28 30 19 12 10 8 7 6 6 5
62 65 73 75 81 83 84 86 78 89 88 98 95 100 100 100 100 97 100 84 92 97 93 83 83 89 81 81 65 56 44 32 22 29 22 13 10 8 7 7 7 6 5
79 90 92 90 89 99 100 100 100 98 93 87 84 84 78 86 94 91 88 90 92 89 88 96 95 90 82 74 62 51 40 29 25 30 19 11 9 8 7 6 5 4 3
65 70 80 82 80 87 98 100 100 100 100 100 100 94 86 93 84 90 87 81 83 83 89 93 90 91 83 72 66 53 38 28 32 32 17 10 8 8 6 5 5 7 6
81 77 78 85 86 88 97 98 95 100 100 100 100 100 100 99 94 96 88 88 74 70 92 80 80 82 75 73 65 50 33 26 38 32 14 10 10 8 7 8 7 5 4
98 97 100 100 100 100 100 100 94 100 100 100 100 100 96 99 96 87 81 81 79 90 91 93 90 78 66 71 60 46 30 31 39 21 12 10 9 8 9 6 4 4 4
100 100 100 100 100 100 100 100 100 100 100 100 100 100 97 95 94 96 77 63 63 87 83 91 90 80 70 67 54 39 28 36 31 15 11 9 7 8 6 5 5 5 5
93 98 99 100 94 100 100 100 100 100 100 100 100 98 100 100 84 80 70 50 60 66 80 90 88 79 72 60 50 35 29 32 22 12 11 9 10 10 6 6 6 5 5
100 95 96 98 100 96 100 100 100 100 100 100 100 93 91 96 83 62 64 55 50 64 79 85 83 73 66 62 49 35 33 26 16 11 11 10 13 8 8 7 7 6 5

GFSMW_250_rhum_126.txt.gz
RH
54 45 39 34 20 17 17 16 15 16 15 16 18 18 19 21 21 22 22 22 20 18 18 17 17 15 14 14 13 12 12 10 8 7 6 6 6 6 6 7 8 9 9
39 34 29 22 18 17 18 19 19 16 18 19 20 20 22 24 24 23 23 23 23 23 21 20 19 17 14 12 11 10 10 9 7 6 5 4 4 5 6 6 7 8 10
30 29 26 20 18 19 19 17 19 21 19 21 24 27 26 25 24 24 23 23 22 20 18 16 17 18 20 21 20 19 20 19 16 12 10 8 7 6 6 6 6 8 10
28 21 18 19 20 19 21 22 21 21 26 30 28 27 26 24 24 23 20 18 20 24 30 33 32 35 34 33 29 25 24 23 22 19 14 12 10 8 8 8 7 7 8
21 18 20 23 24 26 25 26 31 33 32 27 26 26 25 24 23 28 33 34 38 41 42 44 45 40 36 33 31 30 28 25 24 23 22 17 14 9 8 8 8 10 10
20 22 26 30 34 36 38 37 34 30 27 27 26 25 29 36 38 40 44 43 37 37 40 40 43 43 42 40 37 35 34 31 28 26 24 22 20 19 12 9 9 9 11
29 35 38 42 41 38 36 31 27 26 24 26 32 36 40 44 43 43 40 40 42 44 45 51 50 47 45 46 47 47 43 40 36 32 27 25 22 21 23 24 22 14 12
38 41 39 36 35 31 26 25 23 27 35 37 41 46 44 37 39 44 45 47 51 55 65 71 64 58 50 44 46 45 45 47 48 45 39 34 29 27 23 22 23 28 31
39 38 35 29 26 26 28 37 40 43 43 43 43 42 44 49 51 53 70 70 65 68 64 64 64 58 55 56 54 51 49 43 42 39 38 37 41 43 38 30 26 28 30
33 28 26 29 38 42 40 38 38 39 40 41 44 49 53 58 59 62 62 65 72 77 73 66 60 60 59 57 58 64 60 55 51 46 40 37 35 30 30 35 34 34 35
25 35 44 44 40 38 41 41 41 42 43 48 54 56 54 53 56 64 75 76 79 82 92 89 80 75 79 81 75 74 62 60 60 55 51 46 39 34 31 29 30 31 33
44 42 42 39 43 46 50 48 48 49 55 63 75 82 84 86 85 92 86 79 80 83 82 85 91 82 78 79 74 64 58 54 53 49 49 50 49 46 41 38 31 31 34
44 47 47 50 48 51 56 73 84 80 91 83 90 98 100 97 92 94 94 91 94 92 94 94 88 96 94 82 79 76 70 63 61 52 42 46 46 46 45 42 38 34 32
45 48 46 49 53 58 62 70 82 87 100 99 94 100 100 100 100 100 100 100 100 100 100 96 88 76 81 82 76 70 71 66 58 55 45 38 37 36 36 35 33 32 34
43 51 59 65 77 79 84 94 99 99 100 100 100 100 100 100 100 92 100 99 93 100 98 97 90 96 98 95 86 77 64 68 60 54 45 43 45 41 34 36 34 34 32
55 55 59 74 90 100 100 91 80 71 74 73 68 64 75 93 81 79 92 97 90 91 91 100 97 100 100 99 90 79 63 54 60 59 52 46 44 37 31 33 34 34 30
68 78 81 78 72 68 79 77 62 53 62 67 75 77 75 80 84 97 98 91 88 89 75 83 100 100 100 100 92 89 82 66 51 45 49 47 38 34 32 30 35 31 26
56 60 65 66 60 60 64 70 83 100 100 94 100 91 92 93 80 79 91 86 92 99 100 99 97 98 100 100 93 96 78 78 62 41 36 44 40 31 30 30 36 29 25
90 90 94 96 91 96 100 100 100 100 100 100 92 88 92 85 94 95 100 100 100 97 89 96 95 97 94 100 94 100 74 66 61 51 34 33 34 31 25 29 36 28 22
100 100 100 100 100 100 98 99 100 100 100 100 99 85 72 75 97 95 99 96 94 100 100 100 99 100 100 88 89 74 66 56 49 52 42 30 34 30 24 30 33 28 22
74 60 77 96 96 95 81 80 88 80 80 78 69 71 86 91 81 93 95 96 98 99 100 99 100 100 97 96 70 51 51 51 46 45 42 27 30 28 27 36 29 25 21
68 69 82 100 98 90 95 89 72 78 89 82 80 93 96 99 99 100 100 97 98 98 96 100 100 100 100 89 61 43 45 44 40 43 40 29 28 25 30 31 26 20 15
100 100 100 100 100 100 100 100 96 100 92 89 96 93 96 100 100 99 100 100 99 91 98 99 99 90 78 56 47 44 45 40 43 42 29 27 26 29 37 31 24 17 12
69 65 70 74 75 70 67 82 95 98 99 99 100 100 100 100 96 99 100 99 100 97 99 98 77 64 42 40 37 43 45 37 42 30 23 23 30 39 36 32 22 14 10
82 92 96 87 84 89 91 86 83 86 93 97 100 100 100 94 84 86 86 88 89 92 80 77 53 38 27 34 35 40 38 40 34 21 20 27 33 31 33 24 16 11 10
78 76 81 78 72 77 90 87 92 89 88 90 92 81 82 73 79 71 53 51 52 59 56 47 34 28 27 33 34 39 36 35 21 18 26 37 33 34 30 19 13 10 10

GFSMW_250_rhum_129.txt.gz
RH
81 55 64 66 72 64 41 18 18 19 20 17 14 15 16 17 17 16 15 17 22 25 23 21 20 20 20 20 21 21 20 18 16 14 13 12 11 9 7 7 7 6 6
68 67 69 68 54 34 26 22 22 18 16 16 16 16 17 17 16 19 24 25 23 22 21 20 19 17 16 18 20 21 23 24 24 21 21 20 17 14 12 12 8 6 4
61 60 52 49 42 38 29 21 20 19 17 17 18 18 19 22 28 27 24 23 22 20 20 24 30 32 30 28 31 31 32 32 32 29 28 25 22 17 15 15 13 8 7
61 41 36 36 34 26 23 20 19 18 18 20 22 28 31 30 25 24 22 20 23 29 36 34 32 31 34 34 36 39 40 40 39 36 33 31 28 24 17 15 16 13 10
44 41 35 29 28 25 23 19 18 22 27 32 34 31 28 26 23 23 30 32 36 36 33 32 37 42 47 54 58 56 55 57 54 49 44 43 39 29 25 18 16 16 15
37 29 28 28 24 24 22 23 29 34 33 31 29 27 25 27 34 35 38 39 37 38 44 46 48 57 65 65 60 54 54 52 47 42 37 35 34 38 34 28 22 16 16
27 28 24 25 22 23 30 34 35 33 29 28 26 30 36 37 40 38 37 41 48 50 47 48 50 55 57 57 55 55 54 51 48 45 43 35 31 28 28 32 29 27 22
26 23 22 24 31 36 38 37 30 28 27 34 36 36 38 40 41 46 51 54 54 56 50 52 54 60 64 64 63 63 63 64 60 56 52 48 43 35 30 28 27 27 31
21 25 32 35 39 38 31 30 30 36 34 34 38 44 46 48 53 58 57 52 50 58 62 66 76 77 90 93 78 76 75 65 63 64 62 52 48 44 38 35 31 29 28
33 37 40 36 30 30 34 39 39 40 42 43 46 49 49 48 51 56 60 66 70 77 87 100 98 88 78 75 77 73 66 65 65 58 57 51 46 47 46 40 44 37 33
41 37 29 29 37 40 41 44 45 44 46 48 51 58 57 59 64 73 95 100 100 100 100 100 100 100 98 98 89 83 79 96 93 84 61 54 55 49 44 43 39 39 40
28 28 39 39 39 46 48 45 44 46 53 64 67 76 92 100 100 95 100 100 95 99 100 98 94 91 90 100 98 95 100 100 100 92 80 66 52 47 46 41 38 38 33
39 37 37 45 46 51 48 53 63 71 80 88 79 94 100 100 100 100 99 97 82 100 98 78 80 97 98 71 75 87 90 100 100 87 77 66 58 55 51 45 45 37 35
38 47 52 50 47 57 66 68 74 96 88 95 81 74 72 71 69 65 72 76 76 69 72 81 89 82 73 89 99 98 100 100 95 85 86 75 64 62 59 51 42 44 32
46 48 49 59 67 73 77 91 84 74 70 65 60 62 63 62 68 94 84 80 72 83 88 87 96 100 100 100 100 94 87 94 92 97 97 82 62 50 44 45 41 40 36
57 59 55 59 69 69 57 57 55 59 70 78 95 100 100 100 100 100 83 82 69 72 72 94 96 100 88 86 84 91 100 100 100 96 88 59 64 55 46 42 42 37 33
61 60 60 58 56 64 75 73 76 94 100 100 98 98 99 100 100 100 99 85 73 69 78 93 100 100 97 96 98 91 99 100 93 91 89 70 61 48 37 35 34 34 30
80 88 82 77 87 97 99 100 100 100 100 100 100 92 96 95 87 84 91 89 98 88 84 99 98 98 94 98 96 87 98 98 100 100 89 76 58 40 38 38 34 34 29
100 100 100 100 100 100 100 100 98 98 100 91 71 66 66 66 72 77 88 93 93 84 100 100 86 82 85 82 87 96 96 100 100 100 91 70 40 34 36 36 37 31 22
77 80 76 69 66 66 69 69 65 70 85 89 98 100 91 77 69 78 77 78 83 85 84 84 81 90 92 98 92 96 93 96 99 88 61 45 39 35 34 36 31 24 19
62 58 54 54 46 46 48 57 70 81 90 92 91 90 89 90 80 80 89 88 88 88 83 80 76 77 85 86 74 94 93 85 77 58 46 39 35 34 31 30 25 18 18
69 67 73 72 64 68 70 72 76 84 89 86 82 76 78 85 84 98 100 100 96 91 84 74 74 84 84 77 79 80 86 72 48 33 33 32 28 29 30 28 19 16 26
94 99 100 88 77 78 89 80 73 68 61 57 58 55 56 58 63 70 74 90 77 61 56 53 48 48 55 49 51 44 37 35 32 29 30 28 26 29 28 24 16 21 27
64 68 77 69 52 46 42 40 38 41 44 46 48 53 54 60 63 58 50 51 49 48 51 47 45 44 46 40 31 29 25 22 26 27 26 23 26 29 28 16 16 26 24
45 42 37 37 38 40 39 44 49 48 53 57 57 53 55 52 51 43 32 31 30 28 31 31 29 29 32 21 19 21 24 24 22 21 18 22 26 26 19 16 24 22 27
46 48 49 47 58 58 54 54 58 61 58 55 55 51 47 46 38 24 20 20 22 22 21 19 18 16 16 16 16 17 21 21 20 15 17 21 23 18 15 22 21 26 28

GFSMW_250_rhum_132.txt.gz
RH
100 100 100 100 100 77 48 48 55 57 51 26 16 16 15 14 15 16 17 18 18 20 25 27 23 22 20 18 16 18 21 25 26 29 29 28 25 25 25 24 21 19 16
100 100 100 94 58 48 49 55 58 30 15 16 18 16 17 18 19 20 22 28 30 27 23 22 19 18 23 30 32 31 31 31 31 32 33 33 35 32 30 28 25 21 19
100 80 57 52 48 52 58 49 22 15 17 18 19 19 20 21 28 31 30 28 25 23 21 25 32 34 33 30 30 34 36 39 52 56 56 52 46 41 39 36 30 24 23
68 63 66 56 55 43 20 15 16 19 19 20 20 23 29 33 31 28 25 24 24 32 37 36 34 32 35 40 45 44 48 53 54 53 52 48 45 40 36 35 36 32 29
65 59 53 48 24 15 14 20 19 21 21 21 28 34 34 31 26 24 26 35 37 36 35 36 39 46 50 50 53 58 60 59 57 50 46 43 44 44 38 36 28 30 30
17 15 16 16 16 19 20 19 21 21 26 35 36 35 27 24 27 36 37 36 34 40 44 45 48 56 59 60 63 65 63 60 56 55 57 51 45 42 40 43 40 35 28
20 18 17 19 20 21 20 20 26 34 39 38 31 24 26 33 36 35 35 42 46 48 52 65 66 78 72 72 68 68 76 70 69 69 73 72 72 57 55 45 39 37 30
20 21 22 21 21 22 22 31 39 41 33 27 28 32 32 34 38 44 49 48 58 56 63 67 75 84 85 96 100 92 92 90 84 71 88 83 84 70 59 50 46 46 38
20 20 23 23 23 26 37 43 38 28 31 36 35 38 43 48 50 50 50 67 90 88 95 100 92 90 81 94 96 80 86 80 78 90 83 80 84 92 68 59 58 52 44
22 23 24 22 28 41 43 32 30 37 38 43 46 51 68 50 51 59 76 65 95 100 100 72 100 100 100 93 93 90 90 76 68 74 90 82 83 95 95 82 77 59 48
24 23 23 35 43 38 28 36 37 45 52 57 62 55 54 72 89 90 99 85 80 78 70 74 82 85 81 80 76 76 85 100 96 93 90 83 77 85 86 87 87 70 51
24 32 41 39 31 31 38 39 49 54 54 56 67 74 76 86 84 79 75 71 71 97 100 85 72 70 75 90 94 98 100 92 100 97 87 84 89 82 93 99 98 81 69
41 38 32 32 36 34 40 51 55 58 63 83 75 67 72 67 76 79 100 100 100 100 100 92 100 91 71 68 71 78 94 96 99 97 87 90 85 86 89 96 94 86 71
31 35 34 37 44 48 57 70 60 67 84 78 68 67 72 79 83 82 100 100 100 100 100 100 95 75 71 69 70 78 84 87 91 87 88 82 74 73 84 88 81 90 72
34 37 40 47 49 59 67 70 64 57 56 65 70 79 87 94 99 100 100 100 100 84 73 69 63 61 62 60 61 67 76 80 77 75 78 74 82 83 79 84 88 90 67
38 44 56 57 60 61 64 61 60 73 63 71 87 100 100 100 100 82 64 61 62 64 64 70 74 66 76 86 90 86 82 80 88 92 88 92 86 91 86 81 98 89 55
66 65 68 77 80 83 79 82 91 100 100 100 95 62 60 58 54 59 63 61 67 80 89 85 89 95 98 92 93 97 87 82 87 83 68 71 72 77 98 95 91 53 37
68 80 88 92 97 100 100 100 97 83 67 56 52 50 46 51 58 74 85 89 84 80 83 77 74 73 72 72 71 77 87 73 66 62 71 65 60 60 54 62 52 39 24
64 56 55 55 51 47 46 46 49 61 60 48 45 45 54 62 65 63 65 63 61 59 56 54 51 52 57 60 62 67 55 58 57 54 57 54 52 47 48 37 32 26 24
66 54 62 61 61 64 71 80 90 72 62 63 62 70 61 57 59 54 49 51 50 51 52 51 49 47 50 48 40 38 39 43 42 41 35 33 42 40 32 22 22 25 25
72 90 98 95 92 73 53 54 56 59 67 64 61 44 46 56 63 57 60 59 55 51 48 45 50 48 50 49 39 28 24 25 27 27 27 28 29 22 22 21 21 22 22
72 76 74 56 66 62 57 52 49 47 39 42 50 57 65 63 63 60 61 55 52 50 46 41 32 32 35 31 26 20 18 19 23 24 22 20 18 16 17 18 20 19 16
72 70 70 62 51 44 41 43 45 46 58 76 75 74 80 69 59 59 56 57 51 43 34 22 22 24 25 20 16 17 16 18 19 18 16 14 13 15 16 18 19 15 16
57 48 46 42 44 47 54 63 69 71 84 84 80 70 66 68 61 57 49 47 33 23 19 18 18 17 14 13 12 12 13 15 13 12 12 12 13 14 17 19 16 15 16
43 48 59 64 74 90 95 88 91 96 96 85 71 62 55 54 51 42 28 22 19 18 17 15 14 12 11 11 10 10 10 10 10 11 11 12 14 17 17 14 13 12 13
94 100 100 100 100 100 100 100 97 81 68 70 63 56 50 46 42 30 22 20 17 15 13 12 11 11 11 10 10 10 10 9 10 10 11 13 15 14 13 12 10 12 12

GFSMW_250_rhum_135.txt.gz
RH
82 84 91 88 88 75 90 100 100 100 88 62 48 21 14 15 14 15 14 15 16 25 30 29 25 22 20 18 21 29 33 32 32 32 34 34 34 37 35 39 39 36 36
100 98 94 97 100 100 100 100 99 67 49 33 16 14 16 16 15 15 18 26 30 30 26 22 20 21 30 34 33 34 33 38 41 39 41 49 53 56 51 50 47 44 42
100 100 100 100 100 100 97 82 54 34 19 15 16 17 16 17 18 23 30 32 30 24 22 25 35 36 34 37 39 47 51 46 46 51 52 51 49 48 50 50 48 45 40
100 95 94 89 83 72 57 38 16 14 16 18 18 18 19 21 29 33 32 26 22 26 36 37 36 38 43 46 51 54 52 55 54 50 49 53 66 54 52 49 50 48 45
43 31 49 64 44 23 14 14 14 18 20 19 19 21 28 35 34 27 22 26 34 37 36 42 47 47 50 56 53 60 62 54 63 68 69 83 86 89 78 72 55 47 51
19 19 18 16 16 16 16 17 20 20 20 20 23 36 38 29 22 26 31 34 36 41 48 48 54 59 73 84 88 90 89 80 70 78 77 72 67 89 88 78 70 62 50
19 15 14 16 19 19 20 23 21 21 22 26 41 38 27 29 31 32 38 45 46 50 54 60 92 92 95 79 76 74 83 80 83 73 74 70 85 74 77 71 81 79 72
17 16 19 21 21 22 23 21 23 22 31 42 36 29 35 36 40 43 45 46 67 88 100 99 74 59 61 68 80 77 83 80 80 81 81 86 98 84 76 82 84 85 84
19 22 24 22 22 22 22 21 24 36 43 33 34 36 38 42 46 45 55 69 82 67 53 57 71 79 85 79 78 85 87 85 90 95 92 94 95 81 87 90 85 80 73
25 26 24 24 24 24 21 26 41 41 33 39 40 41 44 54 53 66 76 66 74 78 74 86 98 100 100 100 100 100 99 82 73 73 76 75 82 80 79 86 82 82 84
26 24 24 24 23 22 31 42 35 38 42 54 52 45 52 68 69 65 64 74 93 97 100 100 100 100 100 100 100 77 62 62 60 62 58 56 58 61 57 61 79 79 84
24 27 25 23 25 41 38 32 38 41 52 57 51 52 62 60 59 71 78 72 71 76 89 99 100 100 100 89 79 81 76 64 67 62 66 75 80 80 78 85 85 100 85
28 24 22 33 42 32 34 36 41 48 52 46 53 60 66 70 65 66 82 93 100 100 100 88 86 72 67 58 59 63 68 69 66 67 71 68 72 83 80 74 71 76 91
24 34 43 35 35 36 42 43 43 51 56 60 66 67 66 65 85 97 100 100 78 67 63 55 53 52 54 54 56 66 68 69 69 62 61 58 56 55 59 55 60 66 62
43 34 36 37 39 42 44 47 53 64 64 60 56 71 100 100 100 88 67 55 46 45 49 52 52 54 56 54 53 56 58 54 50 46 48 47 50 52 49 46 42 41 49
36 39 38 42 52 65 63 64 73 89 92 100 100 97 61 50 51 46 45 48 46 54 52 55 59 64 62 62 66 64 57 54 52 50 52 53 53 48 44 38 37 36 38
38 50 62 64 67 81 91 98 100 95 74 55 50 47 50 60 65 62 58 56 60 59 52 59 66 65 62 57 54 53 51 45 43 42 41 44 42 42 39 35 28 28 27
66 69 77 87 85 87 75 67 62 49 48 50 43 42 43 45 50 52 53 61 69 69 59 57 74 74 77 71 69 60 55 47 37 32 30 27 27 28 28 23 21 21 20
67 51 47 45 40 42 45 56 52 51 44 45 56 58 56 57 60 76 75 71 70 65 78 89 91 80 62 52 48 39 37 27 24 22 22 20 20 20 16 18 18 16 17
42 43 46 62 75 76 69 56 55 67 71 64 52 54 64 79 80 74 72 82 85 88 99 94 76 69 58 47 35 27 22 20 18 18 17 17 18 15 12 12 13 15 17
59 61 62 88 93 79 67 68 56 47 47 49 52 66 70 78 86 80 89 90 95 91 74 60 53 44 35 26 23 19 18 15 16 16 14 14 12 10 10 10 11 14 14
79 68 67 61 55 57 56 54 56 63 65 71 93 99 100 100 97 80 78 83 76 58 50 49 45 32 24 20 17 16 15 14 13 12 11 11 10 10 9 9 10 10 11
71 79 91 86 79 74 67 80 92 87 86 94 99 93 95 95 94 86 65 54 45 40 41 35 28 21 18 16 16 14 13 12 12 12 12 10 9 9 10 10 10 11 12
85 93 82 66 66 71 75 69 71 84 99 100 100 98 86 86 77 66 52 42 39 36 38 31 23 18 16 15 14 12 12 13 13 12 11 9 9 9 10 10 11 11 13
59 56 60 65 70 76 84 82 76 79 96 91 76 79 81 77 57 46 36 27 27 29 26 19 16 16 15 13 11 11 12 13 13 12 10 9 9 9 10 10 10 10 10
49 52 56 73 76 79 78 70 65 71 80 73 68 62 57 52 45 38 29 25 27 25 18 16 15 15 13 11 12 12 13 13 12 10 10 9 9 9 10 9 9 11 12

GFSMW_250_rhum_138.txt.gz
RH
100 97 77 93 91 90 87 68 67 57 82 100 100 100 81 34 19 15 14 13 13 15 20 27 26 24 21 20 25 30 31 30 32 34 40 42 42 42 43 43 42 44 43
100 97 99 93 74 75 72 79 94 100 100 99 85 46 17 15 16 15 15 15 19 27 26 23 20 21 27 33 31 32 35 39 41 43 44 42 40 42 47 50 50 47 48
100 88 80 66 81 87 97 100 100 98 75 42 23 14 16 17 18 16 17 27 27 22 20 21 27 32 32 36 41 42 46 47 48 45 43 45 50 53 60 58 56 48 50
78 52 56 56 53 71 100 46 32 32 19 15 15 17 18 21 18 22 29 24 19 21 27 31 32 38 44 47 54 55 56 57 58 59 55 54 56 55 64 61 58 54 59
78 100 94 97 86 30 18 18 17 17 16 16 17 19 20 23 30 32 23 22 25 28 32 37 43 45 52 67 66 74 74 68 68 75 82 71 76 76 75 74 78 84 78
30 25 26 21 18 18 18 18 18 18 18 20 20 21 22 35 36 27 29 29 32 38 42 48 58 86 98 92 76 75 76 90 82 83 88 91 86 86 85 88 88 85 73
32 28 24 22 21 21 21 19 20 20 21 22 22 22 34 38 30 34 36 40 41 46 77 90 100 77 57 63 64 74 78 76 74 82 80 62 64 72 78 85 87 75 76
37 32 30 29 27 29 24 23 22 24 24 22 23 36 38 32 37 39 42 45 44 50 69 67 65 60 82 99 99 84 96 100 100 87 74 72 73 71 68 65 60 57 56
40 36 33 31 29 27 26 24 25 24 24 23 34 37 32 37 41 45 47 44 51 54 58 78 88 100 100 100 100 100 100 99 89 81 82 78 71 67 64 65 67 61 70
36 38 37 33 30 27 26 27 27 27 25 33 35 33 38 42 47 49 53 53 54 61 69 76 74 90 100 100 100 100 98 98 88 82 72 67 67 64 58 59 65 66 66
36 40 38 35 31 29 30 28 25 24 37 34 34 37 42 46 48 54 52 66 66 68 76 89 92 93 82 79 77 73 72 57 50 49 50 50 52 53 56 56 51 50 50
32 39 38 36 36 34 28 27 29 40 31 33 36 42 43 48 50 58 65 68 77 90 100 100 98 90 63 53 47 44 49 50 50 50 55 56 56 57 61 58 54 47 42
29 30 32 35 33 30 28 40 35 33 37 42 44 53 63 65 67 66 70 99 100 96 83 65 54 47 49 51 53 54 53 51 55 61 69 66 66 62 56 53 52 48 43
28 32 36 35 32 40 41 34 38 44 48 54 60 71 73 74 91 99 100 87 62 52 52 55 63 67 66 54 52 61 57 58 65 76 79 70 68 56 54 52 49 45 40
36 38 34 40 44 34 38 47 57 62 63 71 77 85 97 90 76 59 56 53 52 57 64 56 52 52 52 54 63 74 74 82 77 69 61 59 55 48 43 41 35 32 28
36 47 46 36 40 48 54 65 76 83 86 86 84 69 58 64 65 60 54 46 56 58 57 58 52 62 62 74 79 82 87 93 89 65 56 49 44 38 30 27 24 23 19
41 39 42 50 58 62 72 66 55 52 50 49 50 49 52 52 64 61 61 68 67 58 56 63 72 86 86 79 91 75 75 64 51 48 44 42 34 28 23 20 20 16 16
45 51 60 65 71 62 50 46 46 50 54 55 62 66 65 66 80 81 64 54 60 69 84 76 71 68 85 92 77 65 49 46 41 34 34 30 23 19 16 15 15 15 13
49 44 44 42 46 47 46 50 51 57 56 64 58 55 59 69 72 70 70 77 78 79 79 74 84 98 100 94 80 51 44 29 29 28 22 19 17 15 14 15 13 12 11
39 48 53 66 66 65 64 64 64 70 80 78 74 76 68 74 80 81 70 72 86 88 89 89 90 95 88 64 54 42 25 25 24 21 16 15 15 15 13 11 11 12 10
51 50 50 45 45 44 44 45 46 49 53 59 60 62 59 61 64 61 58 77 95 97 98 91 83 67 56 52 46 28 24 24 21 16 14 14 14 14 12 11 12 12 12
42 36 34 38 41 43 41 43 47 49 50 49 51 56 58 58 58 66 75 75 76 88 79 78 58 46 43 40 32 23 20 20 18 15 14 15 13 12 13 13 13 12 10
56 57 61 62 56 48 44 56 53 52 52 61 57 52 53 58 60 61 65 63 59 61 59 54 44 42 38 31 23 20 18 18 17 14 15 13 13 15 14 14 13 10 9
82 76 65 58 50 48 61 62 66 69 65 67 68 64 60 64 62 64 65 55 59 60 61 43 27 29 28 22 21 19 17 16 15 15 14 12 14 15 15 13 10 9 10
60 52 51 47 49 60 76 89 88 85 85 82 76 65 68 72 64 49 38 42 42 38 36 34 24 23 22 18 18 17 16 14 14 14 12 14 15 16 14 10 10 9 9
50 46 51 66 80 86 97 98 98 89 76 64 61 65 64 70 51 30 25 26 25 24 24 23 20 20 17 16 16 16 15 14 13 12 12 15 14 16 12 9 9 9 10

GFSMW_250_rhum_141.txt.gz
RH
100 100 100 100 100 98 82 95 98 100 78 79 74 100 100 90 71 37 17 16 15 14 13 13 17 21 18 18 22 28 28 28 30 36 39 42 43 46 45 45 46 46 47
100 100 100 100 91 100 96 95 99 73 72 85 100 92 45 29 19 16 17 16 15 16 20 23 18 17 22 28 29 31 36 38 41 43 51 52 51 47 42 45 48 51 53
100 100 100 96 100 90 82 75 59 60 78 100 73 23 18 17 18 18 18 18 17 24 24 20 22 25 28 32 37 43 49 46 49 49 50 63 64 68 67 59 57 59 62
100 100 100 93 96 82 84 48 55 86 100 34 18 18 18 19 20 21 20 21 28 26 23 24 28 34 39 48 59 72 72 71 59 61 67 75 70 69 68 64 65 68 72
100 100 99 87 82 82 46 64 92 57 20 22 21 21 21 20 24 23 23 32 31 27 31 32 34 42 51 69 74 71 61 61 78 89 99 96 92 82 80 81 74 70 72
100 93 96 78 52 32 28 25 26 27 27 25 23 23 23 24 23 22 30 35 31 34 35 35 42 64 77 68 66 74 81 100 98 96 100 93 95 94 75 66 66 62 64
85 76 70 51 41 39 36 35 32 30 29 28 25 25 27 24 23 29 36 34 38 41 40 43 65 73 77 81 92 100 100 100 100 100 100 99 79 73 76 75 72 66 55
80 67 56 48 46 41 39 38 35 33 32 31 29 30 27 24 28 37 34 39 41 41 43 52 59 68 76 81 90 95 99 98 89 95 99 98 95 82 69 55 52 51 51
50 40 38 36 37 40 41 39 38 34 37 36 32 28 25 32 37 33 37 42 41 43 50 62 66 71 80 92 92 84 84 84 77 70 63 62 60 55 50 48 47 46 48
37 31 30 32 35 36 34 33 32 37 36 32 28 27 34 34 33 36 41 45 49 53 66 71 70 72 84 88 98 97 80 64 60 59 52 52 50 48 54 55 54 56 68
30 30 32 35 35 32 28 26 31 32 31 30 32 38 31 33 37 44 50 54 58 65 74 73 80 96 92 89 76 64 55 58 52 50 54 48 46 54 57 59 58 60 57
28 34 38 40 36 34 27 29 30 31 32 38 39 33 36 41 45 52 64 68 72 73 79 89 98 98 76 63 58 56 54 53 52 49 53 57 60 63 66 71 71 64 60
36 35 32 37 42 40 32 30 34 38 46 37 41 44 50 54 57 72 82 90 93 96 85 74 58 56 56 52 55 58 53 48 55 56 67 72 71 69 56 60 58 51 42
37 31 31 40 46 37 33 35 45 44 41 55 60 68 70 78 85 88 89 86 66 53 53 52 51 56 55 62 60 62 60 60 61 64 55 57 61 54 54 47 41 31 28
34 29 38 41 36 36 38 49 40 44 50 62 74 86 76 68 62 56 54 56 54 51 48 46 46 55 59 57 66 65 68 72 70 71 65 66 82 59 48 41 31 28 21
30 35 35 37 35 50 42 45 56 64 74 72 63 72 59 48 47 47 44 45 43 40 41 49 57 67 73 78 85 67 64 76 91 75 70 67 60 55 38 32 24 21 19
35 36 37 50 44 46 58 59 56 60 61 50 42 39 38 37 39 43 48 51 49 51 55 58 59 65 68 68 67 84 93 95 93 78 82 61 41 40 32 22 19 18 18
43 53 46 43 49 45 46 46 43 40 40 40 41 39 42 44 46 48 56 56 58 59 59 61 64 68 72 75 80 82 78 75 78 66 55 47 41 32 22 18 16 15 15
42 41 42 46 42 41 35 34 37 40 46 50 46 46 53 57 63 66 63 66 75 75 68 68 66 71 80 87 90 82 75 79 74 64 53 41 36 23 17 16 15 15 16
47 41 35 33 34 41 48 53 51 52 54 48 46 47 57 68 77 88 87 85 81 73 66 74 80 87 89 76 59 50 53 67 53 53 49 31 23 19 15 14 14 17 16
30 28 38 41 47 63 58 57 54 43 42 46 61 63 69 67 76 88 98 95 80 74 71 72 79 83 67 65 50 30 28 30 32 30 25 22 19 16 14 14 15 16 16
40 52 55 67 78 73 60 59 54 51 58 65 66 75 83 87 91 91 94 97 94 90 81 82 74 82 63 46 41 27 23 24 24 23 22 20 17 15 14 14 15 16 14
66 66 79 96 100 82 72 62 56 66 70 77 80 88 93 96 98 100 95 96 93 88 83 79 72 69 56 32 25 24 23 22 21 21 21 19 15 14 13 13 14 14 13
82 86 99 100 73 64 72 73 73 63 72 88 98 100 100 100 100 99 90 73 68 79 76 64 42 39 36 27 24 22 21 20 20 19 20 16 13 13 12 13 13 13 13
100 100 93 78 89 91 85 78 70 75 92 98 98 100 100 100 100 94 75 56 63 50 39 33 26 24 26 27 23 21 20 19 18 18 17 14 13 12 12 12 12 12 15
98 95 100 100 91 90 83 76 88 89 87 91 99 100 99 95 84 77 64 38 35 26 21 21 23 24 22 21 20 20 19 16 16 15 14 13 11 11 11 11 12 14 15

GFSMW_250_rhum_144.txt.gz
RH
100 100 100 100 100 100 100 100 98 74 98 100 98 95 78 60 82 100 49 20 19 17 16 14 14 17 19 19 20 22 25 29 31 36 37 39 46 52 52 50 52 54 55
100 100 100 100 100 100 100 97 73 100 100 95 89 78 48 68 85 22 21 21 20 16 14 15 18 21 21 24 25 27 31 35 38 40 48 52 48 51 54 59 61 64 62
100 100 100 100 99 100 88 87 100 100 100 95 82 52 67 74 26 25 25 23 21 16 17 21 29 27 27 28 32 40 41 47 51 58 69 72 70 78 88 79 79 79 75
100 100 100 100 100 93 98 100 100 100 99 94 59 58 32 28 30 29 26 23 20 21 21 31 30 31 30 32 45 51 55 62 63 72 76 69 80 83 95 94 86 81 80
100 100 100 100 99 100 100 100 97 98 67 33 33 35 34 33 30 29 24 20 22 24 31 32 32 36 34 49 57 69 74 81 99 100 100 100 100 100 97 77 60 53 55
100 100 100 100 100 100 100 100 100 46 43 42 40 36 34 29 29 24 21 21 24 31 34 33 38 40 42 63 71 72 70 73 88 86 96 97 95 75 78 84 80 66 62
100 100 100 100 100 100 100 100 77 58 42 35 34 30 26 26 25 22 20 23 32 33 33 38 45 48 50 59 61 74 84 88 92 95 92 98 100 100 89 69 66 59 56
100 100 100 100 100 93 87 68 41 28 29 27 27 27 23 24 23 22 23 32 32 32 38 44 46 51 62 70 70 70 72 80 86 94 100 96 82 62 56 57 52 52 53
95 98 96 83 73 56 48 34 30 30 30 31 32 25 25 26 25 25 33 30 31 36 44 45 47 55 63 68 74 74 79 87 93 100 80 63 58 56 52 48 45 48 48
85 78 61 56 47 47 41 34 30 31 34 40 33 28 28 27 28 36 31 31 36 48 55 61 65 66 68 73 78 83 93 95 79 64 62 62 55 55 51 47 43 44 47
51 54 56 53 49 50 42 32 32 31 38 37 33 30 31 38 40 34 33 37 43 52 67 71 74 79 89 96 89 64 55 55 54 58 59 55 47 44 47 51 52 55 57
43 59 60 56 51 48 38 37 33 33 36 35 31 32 43 41 38 43 58 71 74 71 70 76 82 88 74 58 54 47 42 41 43 50 48 51 51 49 54 68 67 65 58
39 47 53 52 46 44 43 38 32 34 34 33 35 45 38 40 45 56 60 69 81 77 55 49 54 57 57 52 46 45 48 49 50 54 50 58 74 86 89 81 65 65 58
35 38 44 46 48 47 40 35 33 33 34 37 46 39 41 50 59 66 62 54 48 45 46 48 50 50 52 58 61 64 61 64 65 65 68 73 78 84 93 88 84 62 59
34 43 50 53 45 41 38 34 34 34 44 44 39 46 50 56 51 44 42 41 44 47 52 57 57 64 72 70 66 65 66 69 77 86 85 90 89 85 76 76 64 58 52
41 52 54 43 40 38 35 35 37 48 37 40 43 45 43 44 44 47 48 47 52 60 63 64 73 75 78 81 89 91 92 94 92 83 88 95 96 91 89 77 58 40 30
52 51 45 46 39 35 35 47 42 40 41 41 44 46 51 55 50 44 49 57 60 63 61 70 79 86 94 91 94 99 97 96 100 98 95 95 95 80 67 52 39 27 22
45 42 42 36 35 44 44 39 40 40 44 49 53 51 53 46 48 51 52 58 64 66 77 88 91 100 100 100 98 100 100 97 98 97 96 94 88 73 51 34 22 20 19
42 38 36 47 44 40 39 37 40 45 54 57 61 59 62 52 50 60 71 69 67 74 86 88 94 100 100 99 100 100 99 90 95 94 89 82 73 51 32 25 20 18 18
42 45 37 38 32 34 37 41 48 65 76 75 87 56 69 78 82 76 67 65 79 97 100 100 100 100 100 100 99 99 89 74 64 75 79 69 43 28 25 20 18 18 17
30 31 33 31 38 46 48 57 66 81 88 93 79 94 82 84 84 81 80 84 96 98 99 99 96 96 98 100 95 93 76 69 49 42 36 30 23 22 21 18 17 17 18
35 33 34 37 46 59 61 67 80 89 91 96 99 87 95 90 88 76 79 88 82 89 95 98 100 100 100 99 82 70 43 28 24 25 23 22 22 20 19 18 17 18 18
51 52 53 54 69 73 72 79 86 90 99 94 91 100 86 87 84 88 95 91 90 94 92 92 96 72 74 79 58 33 23 20 19 20 21 22 21 21 20 16 16 17 16
73 74 73 58 56 68 85 96 99 95 100 100 100 91 90 89 93 85 88 95 100 98 96 93 76 53 46 38 25 22 21 20 18 16 17 20 21 20 18 16 15 15 15
36 41 48 61 74 77 70 85 96 98 94 99 100 96 91 96 93 86 86 89 90 94 80 59 42 22 20 21 23 23 22 21 20 16 18 18 18 16 15 14 14 14 14
58 59 64 72 82 91 97 88 82 93 91 93 90 95 100 96 76 75 78 89 71 58 33 18 17 19 21 22 21 20 19 19 18 16 15 14 13 13 12 13 14 15 14

GFSMW_250_rhum_147.txt.gz
RH
99 100 100 100 100 100 100 100 100 100 100 100 79 98 100 100 100 94 76 68 57 32 25 20 17 15 14 18 20 24 25 27 27 31 34 35 32 39 42 46 46 47 47
100 100 100 100 100 100 100 100 100 100 100 78 96 100 98 100 96 92 55 34 34 28 22 21 17 15 18 26 28 30 31 29 34 38 51 62 62 62 57 58 59 59 64
100 100 100 100 100 100 100 100 100 100 81 97 100 100 100 93 85 37 37 38 28 22 22 20 17 17 27 32 33 34 35 37 46 54 64 74 74 80 85 84 93 92 86
100 100 100 100 100 100 100 100 100 84 96 100 100 100 98 78 57 43 33 24 21 20 19 18 19 24 34 34 38 38 46 43 46 55 66 76 75 69 86 88 90 92 92
99 100 100 100 99 100 100 98 96 87 100 100 100 100 100 63 48 26 25 23 19 19 18 18 23 33 34 38 41 40 41 48 51 62 72 72 74 80 78 90 97 98 93
82 92 97 82 78 92 100 100 91 100 100 100 100 100 84 44 27 29 30 22 19 19 18 23 33 32 35 43 45 43 48 53 58 67 72 77 81 87 98 100 98 86 77
46 68 79 73 84 100 100 100 100 100 100 100 100 83 40 28 28 32 27 21 20 19 25 32 29 32 39 44 45 44 57 64 66 71 75 76 83 87 93 86 71 60 56
23 45 62 97 100 100 100 100 100 100 100 94 66 40 30 30 27 28 23 22 21 28 32 27 31 35 42 48 52 54 57 60 62 68 71 76 76 65 58 56 51 55 62
22 25 64 100 100 100 100 100 100 99 69 55 49 37 33 28 27 26 24 25 31 33 30 32 36 40 58 58 61 61 59 66 65 69 60 58 57 54 55 56 58 56 56
20 22 60 100 100 100 100 100 82 60 51 52 48 40 37 29 26 25 28 37 35 36 39 44 52 56 59 61 60 54 56 62 67 68 62 56 56 58 62 60 59 56 57
18 21 36 78 92 89 79 66 59 57 57 52 46 42 37 27 26 28 39 37 38 45 48 52 63 69 68 54 54 55 56 54 57 71 84 89 76 77 71 78 78 71 74
19 20 27 38 43 48 47 51 60 62 55 47 49 44 29 27 29 42 35 39 47 46 53 55 53 50 50 51 48 61 62 67 78 84 84 93 85 91 94 91 96 94 87
21 22 31 39 43 43 46 51 52 48 47 55 47 32 29 31 43 37 41 41 46 51 50 48 45 46 52 58 61 70 71 77 90 92 84 80 86 98 96 91 100 97 95
22 26 33 34 35 47 48 40 42 50 54 45 33 30 33 41 37 39 42 48 48 49 48 49 48 54 61 63 64 66 72 80 78 78 95 96 92 100 93 98 100 89 87
27 29 30 35 40 40 41 42 50 52 48 35 31 37 41 38 40 45 50 51 46 43 45 51 57 63 60 58 62 70 75 74 77 83 95 98 96 90 92 93 95 96 95
30 32 35 37 36 38 39 49 51 42 35 32 40 42 37 38 45 50 56 57 59 66 69 65 68 65 69 70 72 75 77 82 97 100 100 96 94 100 98 100 100 99 90
33 38 38 34 32 38 46 43 36 35 34 44 39 36 38 46 51 56 54 53 74 79 75 77 82 97 96 84 85 80 79 87 100 99 97 100 99 100 100 91 79 76 55
36 33 38 35 34 38 37 35 35 38 46 36 38 40 45 53 58 64 60 76 79 91 93 97 89 84 88 86 79 83 86 98 100 100 100 100 100 100 86 62 58 44 29
34 37 37 34 37 35 36 37 47 38 33 36 39 43 54 56 60 70 79 76 67 96 98 93 95 93 76 82 90 94 97 93 98 100 100 98 90 63 47 31 30 22 20
35 36 36 35 36 37 44 37 30 35 38 44 44 47 56 61 64 67 70 81 93 100 100 100 100 85 91 96 100 99 97 97 97 96 90 79 60 34 21 17 18 19 18
36 34 35 40 41 31 32 33 34 35 39 41 54 54 58 60 69 84 92 93 94 96 98 76 78 91 95 100 100 97 97 92 91 68 63 38 23 18 16 16 18 20 19
42 38 34 33 36 36 37 37 39 44 43 51 56 62 62 61 74 69 69 81 87 72 75 81 97 100 100 100 99 92 75 59 36 26 21 17 17 17 18 19 21 20 20
35 35 38 36 37 37 36 36 34 39 46 50 50 60 65 77 88 88 88 88 88 98 100 100 100 100 98 81 56 43 32 19 17 16 14 15 17 19 20 20 18 18 18
36 34 30 33 32 34 36 38 42 48 54 60 57 56 67 77 81 80 100 100 98 87 90 83 86 82 57 43 36 22 18 17 16 15 16 18 19 19 19 18 17 17 16
33 34 34 31 30 35 42 46 55 63 66 64 64 72 81 91 91 93 84 79 77 74 67 62 46 28 21 19 16 16 15 16 17 17 18 17 16 14 13 13 13 13 12
35 36 36 38 40 41 44 48 51 54 57 59 64 73 74 74 76 70 69 68 61 54 40 23 17 16 14 13 12 12 13 14 14 13 13 12 12 12 11 10 10 10 10

GFSMW_250_rhum_150.txt.gz
RH
98 100 100 99 100 100 100 100 100 100 87 99 100 95 100 83 91 100 100 97 92 88 67 43 44 27 24 19 15 20 25 32 32 32 32 34 38 37 43 45 49 51 53
95 97 100 100 100 100 100 100 100 96 97 100 94 99 100 81 100 100 100 98 85 62 50 43 28 23 20 17 19 24 35 34 34 34 34 38 43 51 53 60 65 68 65
93 99 100 100 100 100 100 100 100 100 100 100 96 100 86 100 100 100 100 100 92 74 52 35 26 22 18 19 21 31 36 34 38 41 47 42 50 57 59 66 68 73 77
100 100 100 100 100 100 100 100 100 100 100 100 95 93 96 100 100 100 100 100 88 48 25 23 19 17 18 19 27 33 33 35 40 42 47 51 57 68 73 72 76 81 81
97 100 100 100 100 100 100 100 100 95 88 91 100 93 100 100 100 100 100 97 54 30 24 19 17 18 18 26 30 29 34 39 40 41 51 57 60 65 70 72 74 78 84
67 100 100 100 100 100 100 100 87 89 100 100 93 100 100 100 100 100 85 51 34 30 22 18 19 20 28 26 26 30 39 38 40 45 52 54 55 58 57 59 62 80 72
45 72 99 100 100 100 96 92 97 100 100 96 100 100 100 100 100 78 56 42 37 28 21 21 24 31 27 26 31 35 39 40 47 49 53 56 54 58 69 81 80 66 62
35 40 52 57 67 78 84 80 80 92 96 100 100 100 100 100 76 58 46 44 37 24 23 26 35 34 32 33 33 35 40 45 47 53 61 61 60 58 57 60 77 88 87
28 27 19 23 28 43 33 57 67 96 100 100 100 100 100 81 61 53 48 42 33 24 26 36 33 35 34 33 35 38 45 60 67 68 56 54 60 59 66 80 90 94 91
25 23 21 20 18 19 22 70 96 100 100 100 100 98 73 63 55 55 46 39 29 27 35 35 37 38 37 40 47 50 54 54 54 56 63 71 70 72 76 80 91 86 73
26 24 23 20 19 20 24 52 98 100 100 99 79 59 53 55 53 46 43 34 28 32 37 36 37 39 41 50 53 52 51 54 60 66 66 68 68 74 76 76 81 81 87
26 26 24 20 20 20 24 30 54 72 55 42 45 50 55 46 44 45 39 29 30 39 36 38 45 45 52 54 56 54 51 62 80 81 74 72 74 81 79 74 75 74 87
27 26 24 21 21 24 28 29 34 36 37 38 47 50 43 43 45 42 34 31 38 37 41 46 49 57 57 53 56 67 87 94 89 82 88 94 86 76 79 84 88 86 91
29 29 25 23 23 25 28 28 33 34 38 42 43 45 39 42 40 35 32 37 39 39 47 51 59 65 71 74 80 92 85 79 78 82 100 100 89 89 94 92 89 93 95
32 32 29 26 27 28 27 31 38 39 41 43 37 34 37 37 34 33 35 42 37 42 46 51 66 77 80 69 60 63 56 67 82 80 82 97 96 95 96 89 84 83 83
32 33 32 28 29 32 35 37 42 46 44 35 31 32 34 33 32 36 42 36 37 44 52 57 64 73 68 66 56 65 83 100 100 100 100 99 99 96 100 98 90 88 98
30 34 31 31 34 36 40 48 49 42 37 34 30 32 32 32 41 41 35 37 40 46 53 58 59 58 65 62 70 71 83 98 100 100 100 95 89 94 96 93 75 91 91
34 34 32 33 36 42 50 48 40 34 34 30 30 32 37 42 35 36 37 40 45 47 47 52 53 65 70 69 67 76 74 76 77 80 81 97 100 99 78 75 95 96 78
33 36 36 37 41 43 45 39 34 31 28 32 38 40 33 33 40 40 38 37 42 45 48 49 51 52 50 56 76 74 75 74 77 90 98 90 72 74 80 70 60 46 40
35 40 40 38 41 38 37 32 29 33 39 41 34 34 34 34 34 35 38 40 42 49 57 60 56 56 63 75 78 71 78 90 99 85 72 66 66 64 57 40 24 18 17
36 36 39 37 38 34 30 35 41 42 36 31 28 30 32 34 37 40 42 42 45 45 46 47 52 54 60 65 76 88 88 83 82 79 67 38 29 25 20 16 15 13 12
37 40 38 32 34 37 40 38 34 32 28 33 31 32 34 36 37 37 37 39 42 46 50 54 60 63 67 75 85 84 77 66 44 32 31 21 16 15 15 14 12 12 11
35 39 40 36 36 36 32 31 32 32 30 28 31 34 33 33 35 38 40 44 46 47 51 56 67 76 82 88 80 70 54 29 21 19 15 14 13 12 12 12 12 11 11
39 36 31 28 29 29 27 27 27 28 30 30 30 32 34 37 40 43 49 50 50 58 66 70 67 69 63 42 30 22 17 16 15 14 14 14 13 12 11 11 11 11 10
25 25 26 26 28 30 32 34 36 36 33 33 35 36 38 40 45 48 54 61 62 61 58 55 48 37 28 19 15 14 14 13 12 11 11 10 10 10 11 11 10 9 8
34 35 38 39 40 42 44 46 42 38 40 39 40 43 50 53 55 53 55 61 62 53 40 28 22 17 14 13 13 12 12 10 9 9 9 10 9 9 8 6 5 4 4

GFSMW_250_rhum_153.txt.gz
RH
97 100 100 100 100 100 100 100 100 97 100 100 100 100 100 99 99 95 99 100 100 100 100 98 100 99 84 66 42 24 17 18 21 31 34 34 38 39 38 38 45 46 50
95 100 100 100 100 100 100 100 100 100 100 100 100 100 100 100 100 99 96 100 100 100 100 100 100 89 74 48 34 18 19 19 28 34 33 37 40 41 39 42 43 46 50
80 100 100 100 100 100 100 100 100 100 100 100 100 100 100 100 92 98 100 100 100 100 97 100 96 68 49 37 23 17 18 25 30 30 34 36 38 38 40 44 48 54 60
62 76 97 100 100 100 100 100 100 100 100 100 100 100 100 96 95 100 100 100 100 100 100 100 82 52 38 29 18 18 22 27 25 28 35 35 35 39 50 50 49 54 58
43 64 79 90 98 100 100 100 100 100 100 100 100 100 95 99 100 100 100 100 100 100 100 91 56 42 32 22 19 22 28 25 24 30 33 35 40 43 49 57 68 74 66
37 41 53 68 100 100 100 100 100 100 100 100 92 80 99 100 100 100 100 100 100 100 99 65 48 37 29 22 23 29 29 24 27 33 37 38 42 50 52 48 46 49 52
28 31 40 48 98 100 100 100 100 100 100 92 93 100 100 100 100 100 100 100 100 100 74 51 41 35 28 24 29 34 35 33 33 36 39 42 42 46 46 48 55 63 71
26 28 34 44 63 85 100 100 100 100 91 100 99 89 77 98 100 100 100 100 100 80 55 39 34 33 28 27 34 35 33 36 38 38 40 42 43 50 59 65 62 64 66
28 31 30 36 37 44 68 89 84 82 83 76 61 41 91 100 100 100 100 100 75 52 33 32 34 34 29 30 37 35 36 38 39 46 50 50 53 55 60 68 70 69 72
29 31 30 32 31 31 32 26 38 42 48 39 42 73 96 100 100 100 100 63 35 30 32 35 35 32 30 34 38 38 43 45 49 54 53 52 56 68 84 84 85 87 84
26 29 31 31 30 28 25 24 22 26 22 21 27 49 87 100 93 88 43 35 30 33 32 31 31 31 32 39 39 47 50 56 59 57 59 70 76 81 75 68 71 82 81
26 30 31 32 31 28 26 23 23 22 20 20 22 25 28 37 40 35 32 30 34 30 28 29 29 31 37 41 44 50 56 56 61 68 68 69 64 63 67 76 90 95 99
30 32 34 34 32 29 28 26 24 22 21 24 24 25 26 32 32 33 35 36 32 28 26 28 31 33 43 41 45 49 52 52 66 72 77 84 84 84 84 78 84 98 100
36 37 36 33 32 32 30 27 25 24 24 26 26 27 30 33 36 38 39 36 31 27 28 32 37 45 44 42 42 47 49 55 61 70 79 79 70 68 72 74 70 67 80
38 38 36 32 33 33 31 30 28 27 27 27 30 32 36 37 38 37 35 30 28 28 33 42 47 43 43 44 42 44 49 51 54 54 57 60 60 60 55 53 56 69 78
39 38 34 33 34 35 34 32 31 32 31 32 32 36 37 37 38 35 31 27 29 33 41 41 37 36 37 37 40 42 44 46 49 50 49 49 59 62 56 59 62 64 67
41 40 35 33 34 34 33 33 33 35 34 33 36 40 37 36 37 33 29 31 36 38 33 32 36 39 37 37 39 41 41 40 42 42 45 49 52 56 61 65 73 71 74
39 41 36 33 32 32 33 34 35 36 34 36 40 39 36 35 33 30 33 38 34 33 34 33 33 35 36 36 37 36 38 41 44 46 47 48 54 59 63 67 65 64 60
39 40 38 34 32 32 33 33 35 36 39 40 39 37 34 33 32 38 40 32 30 32 33 33 34 38 37 36 36 37 42 46 51 54 57 61 58 57 50 46 42 37 35
39 40 39 37 35 34 34 33 37 40 40 38 35 34 34 37 39 36 31 31 33 34 34 34 32 32 34 38 44 45 53 57 62 63 67 70 58 44 36 30 27 24 20
39 38 38 38 35 34 36 39 37 38 36 35 35 35 37 35 33 33 32 31 27 28 31 32 34 36 40 46 50 51 50 48 49 48 38 34 30 25 21 21 17 14 12
36 35 36 37 37 36 37 37 35 37 35 34 36 34 31 30 29 29 29 32 32 32 35 38 41 47 50 47 49 44 40 40 36 30 23 18 16 14 13 13 12 11 10
36 35 37 38 40 37 35 37 35 36 33 29 28 28 29 30 33 37 44 40 38 38 42 48 50 50 48 48 43 40 32 26 18 16 15 14 14 13 12 11 10 9 9
38 37 36 36 36 35 34 32 28 28 32 36 38 41 42 42 43 41 38 42 44 49 52 50 44 44 44 41 34 22 21 17 15 14 14 13 11 10 9 9 9 8 8
36 36 34 30 28 30 33 36 39 42 46 50 42 36 37 37 39 41 47 54 55 52 52 46 38 36 33 27 22 17 15 14 13 10 9 9 8 8 8 8 7 6 4
28 30 32 35 39 44 49 50 48 44 37 32 33 38 41 44 50 56 63 62 56 50 47 36 31 25 21 19 15 15 13 10 8 7 8 8 7 7 6 5 4 4 3

GFSMW_250_rhum_156.txt.gz
RH
47 56 55 55 72 68 95 100 100 100 100 100 98 100 94 100 100 100 100 100 100 99 100 92 98 95 88 89 87 93 83 52 36 20 16 24 26 27 33 38 38 40 42
35 36 48 66 72 95 100 100 100 100 100 100 100 100 100 100 100 100 100 100 100 100 100 98 99 95 87 93 93 81 70 43 31 18 17 26 24 26 33 36 37 42 40
26 38 58 62 73 100 100 100 100 100 100 100 100 100 100 100 100 100 100 100 100 100 100 99 94 93 94 97 91 80 54 38 24 18 20 26 23 26 28 33 37 40 44
23 36 53 64 70 99 100 100 100 100 100 100 100 100 100 100 100 100 100 100 100 100 98 88 87 86 98 95 88 67 46 27 21 21 26 27 24 26 32 36 37 43 48
21 28 37 63 77 100 100 100 100 100 100 100 100 100 100 100 100 100 96 87 100 100 87 80 87 93 98 98 74 53 32 22 24 26 31 30 26 28 35 48 43 51 42
18 26 25 37 67 91 100 100 100 100 100 100 100 100 100 93 93 100 98 100 98 81 81 86 84 100 100 78 56 28 21 25 30 31 34 34 34 33 34 38 39 41 40
14 25 23 24 40 62 78 93 99 100 100 100 100 100 99 100 100 100 100 98 76 78 84 84 95 100 86 54 23 21 22 29 34 33 37 36 36 38 36 38 38 39 46
17 25 24 23 28 49 64 64 58 96 100 100 96 98 99 100 92 86 60 41 60 70 79 99 100 95 53 25 22 22 22 30 33 35 40 40 40 41 40 41 40 41 50
19 25 24 23 25 36 41 46 55 91 100 100 99 98 97 79 47 38 30 40 50 73 99 95 84 41 27 24 24 24 24 29 32 36 42 45 46 49 47 43 41 42 56
25 25 24 21 25 30 34 40 42 57 58 55 62 62 39 25 26 23 21 26 37 45 39 40 29 25 26 26 26 25 26 30 33 42 45 46 51 54 52 51 58 63 64
25 24 23 21 24 29 30 35 42 39 34 35 28 23 22 22 21 20 20 21 22 24 26 25 25 27 27 28 26 26 28 32 41 45 46 48 50 52 50 55 57 67 61
25 24 24 24 27 28 31 34 33 34 34 31 26 24 24 24 23 22 23 24 26 27 27 28 28 28 29 29 27 29 35 44 47 49 48 48 46 46 47 47 50 54 55
26 25 23 24 26 29 32 32 32 36 34 31 28 27 26 25 24 24 25 27 30 30 30 29 28 29 29 30 29 35 44 46 45 44 43 43 43 44 43 45 44 44 47
28 25 26 28 29 33 30 32 36 37 36 33 32 30 28 28 27 28 30 31 31 31 32 32 32 29 32 31 37 41 41 41 44 44 42 40 39 40 41 43 43 42 40
30 30 32 32 35 33 36 39 39 37 36 36 36 33 31 31 32 32 33 34 34 35 36 34 30 32 33 37 39 34 34 35 36 36 38 40 40 37 35 36 36 39 43
32 35 37 38 38 39 41 40 38 36 35 38 37 34 33 34 32 34 36 36 35 36 34 31 32 33 39 40 32 33 35 34 34 34 36 32 33 36 37 40 44 47 51
33 37 41 41 41 40 39 38 37 36 35 36 35 33 34 34 36 35 36 36 35 34 32 36 37 40 38 36 34 32 30 29 30 29 35 36 37 43 46 49 51 48 45
36 36 40 42 42 43 43 42 41 38 36 34 33 33 36 37 36 35 37 35 34 35 38 39 38 36 35 32 30 30 31 33 34 39 47 54 53 46 43 43 40 40 38
37 38 39 42 42 44 46 47 44 41 39 37 36 37 39 38 36 38 35 33 37 38 40 36 33 30 29 29 31 35 39 46 48 47 43 42 41 39 36 33 31 28 28
37 41 40 42 48 48 46 46 43 42 41 41 41 41 40 38 37 35 35 39 36 31 32 32 31 31 35 41 45 45 44 44 52 53 50 40 34 32 27 24 22 20 21
39 42 45 48 49 48 50 46 42 41 42 42 41 41 41 38 36 39 39 32 30 34 32 34 41 46 47 48 52 52 48 44 40 36 35 30 26 26 25 22 19 15 12
39 45 51 52 50 49 48 46 43 43 43 44 42 39 37 38 38 32 30 34 33 34 39 45 52 56 58 54 46 42 40 35 28 26 27 24 23 22 21 18 14 12 10
48 54 55 49 44 45 46 45 44 46 44 37 34 37 37 32 32 32 32 33 38 42 51 54 57 59 56 47 45 42 35 27 25 23 23 23 22 19 15 14 10 8 8
51 49 46 40 42 47 48 48 43 34 34 36 32 32 33 29 31 32 40 42 49 51 62 63 44 44 44 36 33 27 24 21 20 20 20 18 14 11 9 8 8 7 6
46 45 44 45 45 41 35 33 34 33 32 34 35 34 39 41 44 52 58 65 70 71 53 45 48 39 31 26 24 20 20 19 18 16 14 10 8 8 7 7 6 4 3
36 33 33 34 33 31 33 36 39 42 44 45 40 43 52 61 68 69 72 77 60 49 46 41 34 30 24 23 21 20 19 17 14 11 8 7 7 6 5 4 4 3 4

GFSMW_250_rhum_159.txt.gz
RH
99 100 100 100 100 99 100 100 98 93 100 100 100 100 100 100 100 100 100 100 100 100 100 100 100 94 99 97 98 84 76 72 66 79 70 45 18 16 19 24 24 25 32
96 100 100 100 100 100 96 100 89 82 87 100 100 100 100 100 100 100 100 100 100 100 100 96 100 96 100 96 92 79 65 67 77 83 57 22 17 18 20 26 26 24 27
76 94 82 99 100 100 97 99 90 74 85 98 100 100 100 100 100 100 100 100 100 100 100 98 95 100 93 82 77 60 68 81 83 64 26 18 18 22 24 29 30 26 27
46 57 52 78 98 98 88 84 74 63 72 100 100 100 100 100 100 100 100 100 100 100 96 98 96 90 82 70 46 67 76 91 69 40 20 18 20 25 29 29 33 30 28
29 41 32 37 38 39 36 38 51 66 80 100 100 100 100 100 100 100 100 100 100 99 95 93 89 84 63 36 54 62 92 77 49 21 22 19 22 26 33 35 35 37 35
21 32 25 20 24 27 31 54 58 62 90 100 100 100 100 100 100 100 100 98 80 86 90 87 81 44 23 38 56 76 69 42 22 21 23 22 23 27 31 39 42 42 40
20 26 21 18 23 28 34 48 66 74 98 100 100 100 100 100 100 100 98 82 87 92 87 60 30 19 28 39 48 39 25 21 22 23 24 26 24 26 31 37 44 44 47
18 23 20 18 20 23 30 30 48 79 100 100 100 100 100 100 100 88 72 90 92 85 32 20 18 18 20 21 23 22 24 25 23 22 24 27 25 28 36 40 43 45 52
18 21 20 20 18 24 28 27 31 50 63 75 84 99 100 96 68 77 84 91 67 25 21 20 20 22 23 25 26 28 28 26 25 25 26 26 27 34 39 41 43 44 47
18 20 20 21 17 22 26 28 28 34 44 52 58 72 70 60 59 50 60 27 20 22 23 22 22 24 26 28 29 30 30 32 31 27 27 28 33 37 38 40 42 43 42
20 21 22 20 18 22 27 28 26 29 35 40 42 45 42 39 38 36 30 25 25 26 25 25 25 28 30 31 31 31 32 31 31 29 32 35 40 39 38 41 45 45 42
20 20 20 19 19 23 27 28 28 29 31 34 36 34 34 37 36 35 32 28 29 28 28 28 30 31 31 31 30 31 30 32 31 33 38 44 41 40 42 43 43 41 39
22 21 20 20 22 24 28 29 28 28 30 35 32 33 35 39 38 38 35 34 34 32 31 32 32 31 31 31 29 30 32 31 34 36 39 41 38 36 37 36 35 35 35
23 22 23 23 25 26 28 29 30 31 33 31 31 34 38 40 40 38 38 38 37 35 34 33 32 32 32 31 32 32 32 36 38 39 34 33 31 30 31 34 38 40 42
25 25 26 26 26 27 30 31 32 35 34 33 34 38 40 40 38 38 37 38 38 35 32 32 32 33 34 32 31 31 35 34 34 30 29 35 42 45 48 52 56 61 62
30 31 29 30 30 32 33 33 37 37 35 36 39 44 44 40 38 37 36 36 34 34 35 34 35 36 34 32 31 32 30 26 31 40 44 47 50 48 48 52 48 49 46
35 35 35 35 35 35 36 40 40 38 37 40 42 43 40 39 39 40 39 38 39 39 39 38 38 36 32 31 33 28 28 36 38 41 53 62 61 60 57 54 48 47 42
47 42 40 38 38 39 39 40 42 41 40 40 42 43 45 47 46 45 43 42 41 40 40 38 35 34 32 33 29 31 38 42 53 54 66 74 69 44 39 37 33 32 30
46 45 43 40 40 40 42 44 45 44 44 46 48 51 50 48 47 46 43 42 41 42 40 37 33 35 32 31 34 42 46 56 60 65 56 46 42 40 38 29 26 26 22
49 46 46 45 44 45 45 45 47 49 48 50 51 52 50 49 52 50 46 45 43 41 36 33 32 31 35 48 54 51 53 74 75 61 50 45 41 34 28 24 21 19 17
46 48 48 44 44 46 46 46 49 54 53 52 52 53 54 56 53 52 49 40 40 35 33 32 39 50 52 56 66 74 67 44 45 42 36 32 33 26 23 20 18 16 13
51 51 49 48 48 45 45 48 51 53 56 57 59 61 59 54 51 47 39 37 33 31 40 48 49 52 66 72 58 57 55 46 36 28 28 26 25 23 19 17 15 13 11
51 54 53 52 54 56 53 54 57 60 60 63 62 57 47 45 39 36 32 31 43 50 50 52 66 72 65 61 54 45 39 33 28 24 22 22 19 16 16 13 10 8 7
60 64 65 66 66 65 66 63 60 59 63 58 50 44 37 36 32 34 48 52 47 58 74 74 70 59 56 47 46 40 35 30 24 22 22 17 14 14 12 9 7 7 6
71 76 77 78 74 66 61 57 58 53 49 42 38 35 33 38 48 48 44 60 82 68 71 66 54 45 44 40 34 30 24 20 18 16 14 13 11 10 7 7 6 5 4
73 74 72 68 60 55 51 45 41 39 37 33 39 41 43 45 47 66 84 72 72 62 57 49 46 41 36 34 29 22 19 19 14 12 11 10 7 7 6 5 4 4 4

GFSMW_250_rhum_162.txt.gz
RH
53 61 61 80 100 100 100 100 100 100 100 100 100 100 100 100 100 100 100 100 100 100 100 100 100 98 95 100 100 92 82 76 72 38 36 41 44 39 22 19 20 18 20
47 59 68 78 100 100 100 100 100 100 100 100 100 100 100 100 100 100 100 100 100 100 100 100 91 96 95 96 97 86 74 68 48 29 34 36 25 26 20 20 22 21 21
48 51 72 98 100 100 100 100 100 100 100 100 100 100 100 99 93 96 100 100 100 100 100 100 99 89 100 92 87 73 71 52 20 23 24 22 21 20 21 21 22 24 23
38 42 67 97 100 100 100 100 100 100 100 100 100 100 100 86 73 81 98 100 100 100 100 100 100 100 88 85 72 70 46 18 17 19 20 20 22 24 23 22 21 24 25
34 49 72 100 100 100 100 100 100 100 100 100 100 100 97 82 68 90 100 100 100 100 100 100 96 84 88 77 70 49 18 18 18 19 21 25 27 28 30 30 24 24 25
31 48 70 90 88 100 100 100 100 100 100 100 100 94 81 68 81 98 100 100 100 100 100 90 84 91 80 74 50 21 19 20 21 22 25 28 29 29 27 29 27 27 26
29 45 55 58 79 100 100 100 96 100 100 78 57 51 54 70 100 100 100 100 100 100 96 98 92 82 80 51 23 21 20 21 24 26 28 27 26 28 28 27 27 28 34
28 38 41 43 40 73 90 82 73 70 52 38 54 67 74 81 99 100 100 100 100 84 79 78 76 77 38 21 23 24 23 24 27 29 27 27 28 28 27 27 26 30 36
24 28 29 32 32 40 54 43 39 30 27 31 50 63 76 93 100 100 100 100 85 76 74 67 63 40 24 25 26 26 26 28 31 29 30 31 31 30 28 29 31 33 38
19 22 24 27 29 32 40 28 25 23 25 30 35 40 59 72 78 95 88 69 67 74 72 42 37 31 28 29 30 29 30 32 32 31 31 33 33 31 29 31 34 34 31
19 20 24 24 26 26 32 25 23 23 25 29 34 33 34 40 54 52 50 46 48 50 45 39 36 34 34 34 35 33 34 32 31 32 34 35 34 32 34 32 31 35 37
20 21 22 23 24 23 26 29 26 25 25 28 31 32 30 34 41 41 39 36 38 38 40 39 36 36 35 34 34 36 33 34 36 38 36 36 34 33 35 31 34 40 42
22 21 20 21 24 22 22 27 27 26 24 27 29 32 32 37 37 36 35 37 38 37 39 39 37 36 34 35 36 36 37 38 38 36 37 37 34 36 34 38 42 50 62
25 24 21 21 23 21 21 25 28 27 23 26 30 34 36 38 36 35 35 36 36 38 38 39 37 35 36 39 40 39 38 38 38 41 36 34 34 34 41 51 56 59 64
27 26 24 22 21 22 23 26 28 26 24 26 29 34 36 40 39 37 36 37 38 40 41 37 36 39 42 43 40 40 42 41 42 37 35 35 39 55 66 72 71 72 74
25 26 26 23 22 23 24 28 28 25 27 30 33 36 38 38 38 38 38 39 40 40 38 39 41 43 45 43 45 45 42 42 37 35 43 60 58 58 67 64 54 46 40
26 27 26 24 24 26 27 28 26 27 32 34 36 38 38 39 41 40 41 38 38 40 42 41 44 43 42 46 48 45 43 36 35 54 67 67 66 71 73 59 46 40 31
27 30 30 28 29 30 30 28 29 32 36 38 40 40 41 43 42 42 40 40 42 42 45 46 44 46 46 46 45 43 35 39 67 75 62 86 91 82 51 40 39 36 32
28 32 32 33 35 35 33 33 36 40 41 42 41 43 45 45 45 44 44 44 44 48 49 49 52 50 44 46 38 36 55 66 59 59 70 64 63 51 41 32 29 25 24
31 34 38 39 39 39 43 41 42 44 44 45 45 47 47 47 48 46 48 50 52 52 50 55 54 46 43 35 53 62 67 58 68 77 81 60 48 41 33 27 23 20 19
34 38 44 48 49 50 47 46 48 48 48 48 49 50 49 49 48 51 52 55 49 51 56 53 47 38 45 59 58 60 64 67 62 59 45 40 36 30 25 21 16 13 12
44 49 50 52 55 53 50 52 54 53 53 53 53 53 54 56 54 57 53 48 47 52 49 42 47 60 56 62 56 54 51 53 40 34 37 35 28 24 20 16 13 11 9
53 56 58 58 59 60 61 61 59 61 58 56 58 59 61 66 64 55 49 45 48 47 48 52 48 70 69 61 62 58 42 38 35 37 31 24 22 17 14 11 9 8 8
58 62 62 64 68 71 70 66 66 65 65 64 66 73 69 60 55 50 52 49 48 45 47 77 70 50 51 48 43 40 41 40 35 25 24 20 15 14 10 9 8 7 6
62 60 62 65 66 67 70 69 67 67 74 77 74 64 55 53 54 49 47 45 47 56 60 52 52 46 43 40 41 38 32 26 21 20 16 14 11 9 8 8 7 6 5
59 60 61 60 62 61 63 66 71 76 69 62 58 54 52 50 53 44 54 62 58 61 56 43 39 41 45 44 35 31 25 22 19 15 12 9 7 7 7 6 6 4 4